Home   Weather   Nukualofa   Past weeks

Flag for Tonga Past Weather in Nukualofa, Tonga — Yesterday and Last 2 Weeks

Now
70 °F

Scattered clouds.


Feels Like: 70 °F
Forecast: 75 / 84 °F
Wind: No wind

Location: Fua'Amotu

Current Time: Dec 7, 2016 at 7:55:39 am

Latest Report: Dec 7, 2016 at 7:00 am


Visibility: N/A

Pressure: 29.74 "Hg

Humidity: 100%

Dew Point: 70 °F

Location of NukualofaLocation

Past Weather in Nukualofa — Graph

°F

Nukualofa Temperature Yesterday

Maximum temperature yesterday: 82 °F (at 12:00 pm)
Minimum temperature yesterday: 72 °F (at 1:00 am)
Average temperature yesterday: 77 °F

High & Low Weather Summary for the Past Weeks

 TemperatureHumidityPressure
High90 °F (Dec 2, 2:00 pm)100% (Nov 23, 6:00 am)30.04 "Hg (Nov 23, 6:00 am)
Low70 °F (Dec 7, 5:00 am)63% (Dec 2, 3:00 pm)29.71 "Hg (Dec 3, 4:00 am)
Average79 °F86%29.87 "Hg
* Reported Nov 22 6:00 am — Dec 7 6:00 am, Nukualofa, Weather by CustomWeather, © 2016

Note: Actual official high and low records may vary slightly from our data, if they occured in-between our weather recording intervals... More about our weather records

Advertising

Nukualofa Weather History for the Previous 24 Hours

Scroll right to see more
 ConditionsComfort  
Time TempWeatherWind HumidityBarometerVisibility
6:00 am
Wed, Dec 7
70 °FPassing clouds.No wind100%29.74 "HgN/A
5:00 am70 °FPassing clouds.No wind100%29.74 "HgN/A
4:00 am72 °FPassing clouds.No wind94%29.74 "HgN/A
3:00 am72 °FPassing clouds.No wind94%29.74 "HgN/A
2:00 am73 °FPassing clouds.No wind94%29.74 "HgN/A
1:00 am75 °FPassing clouds.No wind94%29.77 "HgN/A
12:00 am75 °FPartly cloudy.No wind89%29.80 "HgN/A
11:00 pm
Tue, Dec 6
75 °FPassing clouds.6 mph89%29.77 "HgN/A
10:00 pm73 °FPassing clouds.6 mph94%29.77 "HgN/A
9:00 pm73 °FSprinkles. Partly cloudy.8 mph94%N/AN/A
8:00 pm77 °FBroken clouds.12 mph83%29.77 "HgN/A
7:00 pm79 °FScattered showers. Broken clouds.9 mph89%29.74 "HgN/A
6:00 pm77 °FPartly sunny.14 mph89%29.71 "HgN/A
5:00 pm75 °FCloudy.14 mph100%29.74 "HgN/A
4:00 pm79 °FBroken clouds.No wind94%29.74 "HgN/A
3:00 pm81 °FRain showers. Mostly cloudy.No wind89%29.77 "Hg1 mi
2:00 pm81 °FSprinkles. Broken clouds.2 mph89%29.77 "HgN/A
1:00 pm82 °FBroken clouds.2 mph84%29.77 "HgN/A
12:00 pm82 °FBroken clouds.9 mph84%29.77 "HgN/A
11:00 am79 °FBroken clouds.10 mph94%29.77 "HgN/A
10:00 am75 °FSprinkles. Broken clouds.6 mph100%29.80 "HgN/A
9:00 am75 °FSprinkles. Broken clouds.6 mph100%29.80 "HgN/A
8:00 am75 °FBroken clouds.9 mph100%29.80 "HgN/A
7:00 am75 °FBroken clouds.12 mph100%29.77 "HgN/A
Weather by CustomWeather, © 2016

See weather overviewHow to use our weather pages